Погода в Джулинке

Украина / Винницкая область     48°26′29″N   29°44′51″E
темп.,
°C
ветер,
м/с
пор.,
м/с
влажн.,
%
обл.,
%
осадки,
мм/ч
давл.,
гПа
погр.,
м
11 мая, вт
вт1100:00+9всв35680 0.0 102386
03:00+8св336643 0.0 102337
06:00+7ссв34730 0.0 102263
09:00+12с466418 0.0 1022348
12:00+17с56555 0.0 1020764
15:00+20ссв56545 0.0 10181255
18:00+19ссв57645 0.0 10171341
21:00+16св397594 0.0 1016321
12 мая, ср
ср1200:00+13в479446 0.1 1016330
03:00+10всв379394 0.1 1016293
06:00+7всв4108310 0.0 1016372
09:00+10всв677037 0.0 1016988
12:00+11всв5662100 0.0 10151332
15:00+12всв4561100 0.0 10141189
18:00+12всв3468100 0.1 1013493
21:00+9всв358177 0.2 1013118
13 мая, чт
чт1300:00+7в23895 0.0 101233
03:00+6юв22925 0.0 101226
06:00+5юв349267 0.0 101284
09:00+8юв4887100 0.1 1011351
12:00+10юв5981100 0.6 1011562
15:00+15ююв61069100 0.6 10101334
18:00+12ююв51092100 0.4 1009616
21:00+11вюв41095100 1.5 1009295
14 мая, пт
пт1400:00+10юв369497 0.0 1008114
03:00+8ююв34915 0.0 100855
06:00+8ююв349012 0.0 100872
09:00+13ююв3471100 0.0 1008349
12:00+15ю457086 0.0 1008699
15:00+13юз478867 0.4 1008382
18:00+17зюз466925 0.0 1008976
21:00+13юз228610 0.0 100912
15 мая, сб
сб1500:00+11зюз228951 0.0 100910
03:00+11сз1289100 0.0 101011
06:00+11ссв228977 0.0 101120
09:00+16св237116 0.1 1011435
12:00+19в225999 0.0 10111277
15:00+19ююв236366 1.5 1010923
18:00+21ю23532 0.0 10101636
21:00+16св227451 0.4 101020